TimeCDT,TemperatureF,Dew PointF,Humidity,Sea Level PressureIn,VisibilityMPH,Wind Direction,Wind SpeedMPH,Gust SpeedMPH,PrecipitationIn,Events,Conditions,WindDirDegrees,DateUTC
12:13 AM,53.6,46.4,77,29.87,10.0,WNW,15.0,23.0,N/A,,Scattered Clouds,290,2013-09-21 05:13:00
12:33 AM,53.6,44.6,72,29.87,10.0,West,11.5,16.1,N/A,,Scattered Clouds,280,2013-09-21 05:33:00
12:54 AM,53.6,44.6,72,29.87,10.0,West,12.7,19.6,N/A,,Mostly Cloudy,280,2013-09-21 05:54:00
1:13 AM,53.6,44.6,72,29.88,10.0,WNW,12.7,18.4,N/A,,Mostly Cloudy,300,2013-09-21 06:13:00
1:34 AM,53.6,44.6,72,29.88,10.0,West,11.5,-,N/A,,Overcast,280,2013-09-21 06:34:00
1:53 AM,53.6,44.6,72,29.89,10.0,WNW,6.9,-,N/A,,Overcast,300,2013-09-21 06:53:00
2:13 AM,53.6,44.6,72,29.90,10.0,NNW,9.2,-,N/A,,Overcast,340,2013-09-21 07:13:00
2:33 AM,51.8,44.6,76,29.90,10.0,NW,9.2,-,N/A,,Overcast,320,2013-09-21 07:33:00
2:53 AM,51.8,42.8,71,29.90,10.0,NW,11.5,-,N/A,,Overcast,310,2013-09-21 07:53:00
3:14 AM,51.8,42.8,71,29.90,10.0,WNW,13.8,-,N/A,,Overcast,300,2013-09-21 08:14:00
3:33 AM,51.8,44.6,76,29.90,10.0,WNW,12.7,-,N/A,,Overcast,300,2013-09-21 08:33:00
3:54 AM,51.8,44.6,76,29.91,10.0,WNW,12.7,19.6,N/A,,Overcast,300,2013-09-21 08:54:00
4:13 AM,51.8,42.8,71,29.92,10.0,NW,11.5,20.7,N/A,,Overcast,320,2013-09-21 09:13:00
4:34 AM,50.0,42.8,76,29.92,10.0,NW,9.2,16.1,N/A,,Overcast,320,2013-09-21 09:34:00
4:53 AM,48.2,42.8,82,29.93,10.0,NW,9.2,-,N/A,,Mostly Cloudy,320,2013-09-21 09:53:00
5:13 AM,48.2,42.8,82,29.93,10.0,NW,6.9,-,N/A,,Mostly Cloudy,320,2013-09-21 10:13:00
5:33 AM,48.2,42.8,82,29.93,10.0,North,8.1,-,N/A,,Overcast,360,2013-09-21 10:33:00
5:53 AM,48.2,42.8,82,29.94,10.0,NNW,4.6,-,N/A,,Overcast,330,2013-09-21 10:53:00
6:14 AM,48.2,41.0,76,29.94,10.0,NW,5.8,-,N/A,,Overcast,320,2013-09-21 11:14:00
6:33 AM,48.2,39.2,71,29.95,10.0,NW,6.9,-,N/A,,Overcast,310,2013-09-21 11:33:00
6:53 AM,48.2,39.2,71,29.96,10.0,NW,5.8,-,N/A,,Overcast,320,2013-09-21 11:53:00
7:14 AM,48.2,39.2,71,29.96,10.0,NW,5.8,-,N/A,,Overcast,320,2013-09-21 12:14:00
7:33 AM,48.2,39.2,71,29.97,10.0,NNW,6.9,-,N/A,,Overcast,330,2013-09-21 12:33:00
7:54 AM,48.2,39.2,71,29.97,10.0,NW,5.8,-,N/A,,Overcast,310,2013-09-21 12:54:00
8:13 AM,48.2,39.2,71,29.97,10.0,NW,6.9,-,N/A,,Overcast,310,2013-09-21 13:13:00
8:33 AM,48.2,39.2,71,29.97,10.0,WNW,9.2,-,N/A,,Overcast,290,2013-09-21 13:33:00
8:54 AM,48.2,39.2,71,29.98,10.0,NW,5.8,-,N/A,,Overcast,310,2013-09-21 13:54:00
9:13 AM,48.2,37.4,66,29.98,10.0,NW,10.4,18.4,N/A,,Overcast,320,2013-09-21 14:13:00
9:33 AM,50.0,37.4,62,29.98,10.0,NW,12.7,-,N/A,,Overcast,320,2013-09-21 14:33:00
9:53 AM,50.0,37.4,62,29.98,10.0,NW,11.5,-,N/A,,Overcast,310,2013-09-21 14:53:00
10:13 AM,50.0,39.2,66,29.98,10.0,NW,9.2,-,N/A,,Overcast,310,2013-09-21 15:13:00
10:34 AM,51.8,39.2,62,29.98,10.0,NNW,5.8,-,N/A,,Overcast,340,2013-09-21 15:34:00
10:53 AM,51.8,39.2,62,29.97,10.0,NW,5.8,-,N/A,,Overcast,320,2013-09-21 15:53:00
11:13 AM,53.6,39.2,58,29.97,10.0,North,5.8,-,N/A,,Scattered Clouds,350,2013-09-21 16:13:00
11:34 AM,53.6,39.2,58,29.97,10.0,WNW,5.8,-,N/A,,Scattered Clouds,290,2013-09-21 16:34:00
11:53 AM,53.6,39.2,58,29.97,10.0,West,6.9,-,N/A,,Scattered Clouds,280,2013-09-21 16:53:00
12:13 PM,55.4,39.2,54,29.96,10.0,NNW,3.5,-,N/A,,Clear,330,2013-09-21 17:13:00
12:34 PM,55.4,39.2,54,29.96,10.0,North,4.6,-,N/A,,Clear,10,2013-09-21 17:34:00
12:53 PM,55.4,39.2,54,29.96,10.0,WNW,4.6,-,N/A,,Clear,300,2013-09-21 17:53:00
1:13 PM,57.2,39.2,51,29.96,10.0,WNW,5.8,-,N/A,,Clear,300,2013-09-21 18:13:00
1:34 PM,57.2,39.2,51,29.95,10.0,West,6.9,-,N/A,,Clear,280,2013-09-21 18:34:00
1:53 PM,59.0,39.2,48,29.94,10.0,North,4.6,-,N/A,,Clear,360,2013-09-21 18:53:00
2:13 PM,59.0,39.2,48,29.94,10.0,NNW,4.6,-,N/A,,Clear,340,2013-09-21 19:13:00
2:33 PM,60.8,39.2,45,29.94,10.0,WNW,3.5,-,N/A,,Clear,290,2013-09-21 19:33:00
2:53 PM,60.8,39.2,45,29.94,10.0,West,4.6,-,N/A,,Clear,280,2013-09-21 19:53:00
3:13 PM,60.8,39.2,45,29.94,10.0,NW,3.5,-,N/A,,Clear,310,2013-09-21 20:13:00
3:34 PM,60.8,41.0,48,29.93,10.0,NE,4.6,-,N/A,,Clear,50,2013-09-21 20:34:00
3:53 PM,60.8,41.0,48,29.93,10.0,ENE,4.6,-,N/A,,Clear,70,2013-09-21 20:53:00
4:13 PM,60.8,41.0,48,29.93,10.0,Calm,Calm,-,N/A,,Clear,0,2013-09-21 21:13:00
4:34 PM,60.8,41.0,48,29.92,10.0,Calm,Calm,-,N/A,,Clear,0,2013-09-21 21:34:00
4:53 PM,60.8,39.2,45,29.92,10.0,Calm,Calm,-,N/A,,Clear,0,2013-09-21 21:53:00
5:14 PM,60.8,42.8,52,29.92,10.0,East,3.5,-,N/A,,Clear,90,2013-09-21 22:14:00
5:33 PM,60.8,42.8,52,29.93,10.0,Calm,Calm,-,N/A,,Clear,0,2013-09-21 22:33:00
5:54 PM,60.8,42.8,52,29.93,10.0,East,3.5,-,N/A,,Clear,80,2013-09-21 22:54:00
6:13 PM,60.8,44.6,55,29.92,10.0,Calm,Calm,-,N/A,,Clear,0,2013-09-21 23:13:00
6:33 PM,60.8,44.6,55,29.92,10.0,Calm,Calm,-,N/A,,Clear,0,2013-09-21 23:33:00
6:54 PM,59.0,44.6,59,29.92,10.0,East,3.5,-,N/A,,Clear,80,2013-09-21 23:54:00
7:13 PM,57.2,44.6,63,29.92,10.0,Calm,Calm,-,N/A,,Clear,0,2013-09-22 00:13:00
7:33 PM,57.2,44.6,63,29.92,10.0,NNE,6.9,-,N/A,,Clear,20,2013-09-22 00:33:00
7:54 PM,57.2,46.4,67,29.93,10.0,NNE,8.1,-,N/A,,Clear,30,2013-09-22 00:54:00
8:13 PM,57.2,46.4,67,29.94,10.0,NNE,8.1,-,N/A,,Clear,20,2013-09-22 01:13:00
8:33 PM,57.2,48.2,72,29.94,10.0,NNE,10.4,-,N/A,,Clear,20,2013-09-22 01:33:00
8:53 PM,57.2,48.2,72,29.95,10.0,NE,13.8,-,N/A,,Clear,40,2013-09-22 01:53:00
9:13 PM,55.4,46.4,72,29.95,10.0,NNE,15.0,-,N/A,,Clear,30,2013-09-22 02:13:00
9:34 PM,55.4,46.4,72,29.95,10.0,NNE,12.7,-,N/A,,Clear,30,2013-09-22 02:34:00
9:53 PM,55.4,46.4,72,29.96,10.0,NNE,11.5,-,N/A,,Clear,30,2013-09-22 02:53:00
10:13 PM,55.4,48.2,77,29.96,10.0,NNE,13.8,-,N/A,,Clear,30,2013-09-22 03:13:00
10:34 PM,55.4,50.0,82,29.97,10.0,NE,11.5,-,N/A,,Clear,40,2013-09-22 03:34:00
10:53 PM,53.6,46.4,77,29.98,10.0,ESE,8.1,-,N/A,,Clear,110,2013-09-22 03:53:00
11:13 PM,51.8,44.6,76,29.98,10.0,ESE,6.9,-,N/A,,Clear,120,2013-09-22 04:13:00
11:33 PM,50.0,44.6,82,29.99,10.0,SE,6.9,-,N/A,,Clear,130,2013-09-22 04:33:00
11:53 PM,50.0,42.8,76,29.99,10.0,ESE,6.9,-,N/A,,Clear,120,2013-09-22 04:53:00